Regional Weather Roundup
Issued by NWS

Home | Current Version | Previous Version | Text Only | Print | Product List | Glossary On
Versions: 1 2 3 4 5 6 7 8 9 10 11 12 13 14 15 16 17 18 19 20 21 22 23 24 25 26 27 28 29 30 31 32 33 34 35 36 37 38 39 40 41 42 43 44 45 46 47 48 49 50
000
ASUS45 KTFX 192019
RWRMT
MONTANA HOURLY WEATHER ROUNDUP
NATIONAL WEATHER SERVICE GREAT FALLS MT
119 PM MST FRI DEC 19 2014

NOTE: "FAIR" INDICATES FEW OR NO CLOUDS BELOW 12000 FEET WITH NO
SIGNIFICANT WEATHER AND/OR OBSTRUCTIONS TO VISIBILITY.

* THESE STATIONS ARE NOT UNDER NWS QUALITY CONTROL. THEY DO NOT
   REPORT WEATHER SUCH AS PRECIPITATION OR FOG.

MTZ001>007-043-192100-
WEST OF THE DIVIDE
CITY           SKY/WX    TMP DP  RH WIND       PRES   REMARKS
KALISPELL      FOG       34  34 100 CALM      29.87F VSB 2
MISSOULA       CLOUDY    34  28  79 NW6       29.93S WCI  29
BUTTE          PTSUNNY   36  25  64 N6        29.91F WCI  31
MULLAN PASS    SNOW      30  28  92 VRB6      29.83S VSB M1/4 WCI  24
* ESSEX        N/A       34  32  92 N/A        N/A
* EUREKA APT   CLOUDY    41  34  76 S13       29.84F
* HAMILTON APT CLOUDY    45  28  51 S16       29.89F
* LIBBY APT    CLOUDY   N/A N/A N/A CALM      29.88S
* LINCOLN      N/A       35  27  73 SE2        N/A
* LOOKOUT PASS N/A       33  33 100 N1         N/A
* POLSON       N/A       36  35  96 SE1        N/A
* RONAN APT    CLOUDY    34  32  92 N/A        N/A
* SEELEY LAKE  N/A       33  29  85 N/A        N/A
* THOMP F APT  CLOUDY    27  25  92 SE6G12     N/A   WCI  20
* YAAK HILL    N/A       36  34  92 E1         N/A
$$

MTZ008-052>055-192100-
SOUTHWEST MONTANA
CITY           SKY/WX    TMP DP  RH WIND       PRES   REMARKS
BOZEMAN        PTCLDY    34  25  70 S5        29.90F WCI  29
DILLON         CLOUDY    36  27  70 E3        29.92F
* W YELLOWSTON PTCLDY    29  25  85 SW4G12     N/A
* THREE FORKS  PTCLDY    45  45 100 N/A        N/A
* BOULDER HILL N/A       35  21  57 S19G24     N/A   WCI  24
* MONIDA PASS  N/A       25  25 100 SE18G26    N/A   WCI  11
* RAYNOLDS PAS N/A       28   9  45 SE18G26    N/A   WCI  15
* WHITEHALL    N/A       43  30  60 SW12G18    N/A
* WISE RIVER   N/A       32  25  75 W3         N/A
$$

MTZ009>010-012-014-046-048-049-054-192100-
EAST SLOPES AND CENTRAL MONTANA
CITY           SKY/WX    TMP DP  RH WIND       PRES   REMARKS
CUT BANK       CLOUDY    39  30  70 SW6       29.74F WCI  35
GREAT FALLS    PTSUNNY   45  28  51 SW16      29.79F
HELENA         PTCLDY    36  27  70 NW5       29.88F WCI  32
MALMSTROM AFB  PTSUNNY   43  28  56 SW18G25   29.80F
* CONRAD       PTSUNNY   41  36  82 CALM       N/A
* DEARBORN     N/A       46  26  46 S11G20     N/A
* MONARCH      N/A       39  18  43 S8G16      N/A   WCI  33
* PENDROY      N/A       39  28  65 N/A        N/A
* ROGERS PASS  N/A       36  25  64 SE11G17    N/A   WCI  28
* SWEET GRASS  N/A       28  24  85 S12G17     N/A   WCI  18
* WHITE SULPH  N/A       39  25  57 S20G30     N/A   WCI  29
$$

MTZ011-013-016-021-035-040-045-047-050-051-192100-
NORTH CENTRAL MONTANA
CITY           SKY/WX    TMP DP  RH WIND       PRES   REMARKS
HAVRE          CLOUDY    30  25  82 E8        29.81F WCI  22
LEWISTOWN      CLOUDY    41  27  58 E5        29.82F
* N BAR RANCH  SUNNY     43  21  42 S7        29.84F
* CHINOOK      PTCLDY    27  27 100 E5        29.84F WCI  21
* CHESTER      N/A       32  28  85 N/A        N/A
* DENTON       N/A       41  28  60 SE4        N/A
* GEYSER       N/A       40  26  57 E4         N/A
* JUDITH GAP   N/A       41  24  51 SW16G22    N/A
* LOMA         N/A       36  30  79 NE7        N/A   WCI  30
$$

MTZ017>020-022>027-061-062-192100-
NORTHEAST MONTANA
CITY           SKY/WX    TMP DP  RH WIND       PRES   REMARKS
GLASGOW        SUNNY     37  27  67 CALM      29.87F
GLENDIVE       SUNNY     41  27  58 S8        29.90F
JORDAN         PTCLDY    46  27  48 SW6       29.85F
SIDNEY         SUNNY     39  28  65 CALM      29.91F
WOLF POINT     SUNNY     37  28  70 SW3       29.89F
* BEAVER HILL  N/A       40  26  57 S11G17     N/A   WCI  33
* CIRCLE       N/A       43  32  65 SW2        N/A
* LINDSAY DVD  N/A       42  27  55 W6         N/A
* NAVAJO       N/A       32  32 100 SW1        N/A
* PLENTYWOOD A SUNNY     27  27 100 CALM      29.88F
* POPLAR APT   SUNNY     34  28  79 SW5       29.89F WCI  29
* SACO         N/A       32  29  89 S1         N/A
$$

MTZ028>042-056>058-192100-
SOUTHCENTRAL AND SOUTHEAST MONTANA
CITY           SKY/WX    TMP DP  RH WIND       PRES   REMARKS
BAKER          SUNNY     43  25  49 W9        29.90F
BILLINGS       PTSUNNY   37  21  52 SW9       29.88F WCI  30
LIVINGSTON     PTSUNNY   46  23  40 W23G30    29.85F
MILES CITY     SUNNY     43  25  49 W6        29.89F
* FORSYTH APT  PTCLDY    43  25  49 CALM      29.88F
* LAUREL APT   PTCLDY    43  18  37 S6         N/A
* ROUNDUP APT  PTCLDY    45  21  38 S8         N/A
* ALZADA       N/A       39  24  55 SW3        N/A
* HYSHAM       N/A       38  16  41 W4         N/A
* LAME DEER    N/A       42  19  40 W6         N/A
* REED POINT   N/A       38  22  53 E5         N/A   WCI  34
* ROSCOE HILL  N/A       40  14  35 E8         N/A   WCI  35
$$

REGIONAL REPORTS...DAKOTAS
CITY           SKY/WX    TMP DP  RH WIND       PRES   REMARKS
WILLISTON      FOG       27  23  85 CALM      29.91F VSB 2 1/2
DICKINSON      SUNNY     43  28  56 SW10      29.86F
BEACH          SUNNY     39  28  65 SW13      29.89F WCI  31
CROSBY         FOG       23  23 100 CALM      29.91F VSB 1 1/4
TIOGA          FOG       25  25 100 W5        29.92S VSB M1/4 WCI  19
WATFORD CITY   SUNNY     36  30  79 W6        29.88S WCI  31
BISMARCK       PTCLDY    37  27  67 CALM      29.92F
GRAND FORKS    FOG       27  27 100 S9        30.01F VSB 3/4  WCI  18
FARGO          FOG       30  27  89 S12       30.02F WCI  20
BUFFALO SD     PTSUNNY   45  25  45 W10       29.83F
RAPID CITY     PTSUNNY   48  21  34 NE7       29.93F
$$

REGIONAL REPORTS...WYOMING/IDAHO/WASHINGTON
CITY           SKY/WX    TMP DP  RH WIND       PRES   REMARKS
GILLETTE       SUNNY     37  19  48 SW15      29.91F WCI  28
SHERIDAN       CLOUDY    43  21  42 S3        29.89F
CODY           PTSUNNY   43  21  42 W14G28    29.89F
YELLOWSTONE LA PTCLDY    27  19  72 VRB5      30.04F WCI  21
SALMON         CLOUDY    34  25  70 NE5       29.96F WCI  29
MULLAN PASS    SNOW      30  28  92 VRB6      29.83S VSB M1/4 WCI  24
SAND POINT     N/A       37  37 100 S6        29.89F WCI  32
SPOKANE        CLOUDY    41  37  86 S13G22    29.88R
$$

REGIONAL REPORTS...ALBERTA
CITY           SKY/WX    TMP DP  RH WIND       PRES   REMARKS
CALGARY        PTSUNNY   37  25  62 SW6       29.61F WCI  32
LETHBRIDGE     PTSUNNY   39  32  76 SW15      29.69F WCI  31
MEDICINE HAT   PTSUNNY   30  27  89 CALM      29.73F
EDMONTON       PTSUNNY   23  19  85 SE9       29.64F WCI  13
WATERTON GATE  N/A       45  28  51 SW15G24    N/A
CARDSTON       N/A       41  32  70 SW8        N/A
MILK RIVER     N/A       30  25  82 S9         N/A   WCI  22
$$

REGIONAL REPORTS...SASKATCHEWAN
CITY           SKY/WX    TMP DP  RH WIND       PRES   REMARKS
SWIFT CURRENT  N/A       34  30  85 S8        29.79F WCI  27
REGINA         LGT SNOW  18  16  92 VRB2      29.91F VSB 1
VAL MARIE      N/A       27  27 100 CALM       N/A
ASSINIBOIA     N/A       23  18  81 E2         N/A
CORONACH       N/A       28  28 100 SE1        N/A

$$



USA.gov is the U.S. government's official web portal to all federal, state and local government web resources and services.